Location: Recife
(8.0585°S, 34.8848°W)
Time: 12:08:43
(UTC-03:00)

Vanguard 2 - Pass Details

Date: 17 April 2026
Orbit: 554 x 2894 km, 32.9° (Epoch: 7 May)

Event Time Altitude Azimuth Distance (km) Brightness Sun altitude
Rises 23:42:18 0° 253° (WSW) 6,345 - -83.8°
Reaches altitude 10° 23:47:25 10° 242° (WSW) 5,542 - -82.6°
Maximum altitude 00:01:21 28° 188° (S) 4,331 - -79.3°
Drops below altitude 10° 00:14:36 10° 134° (SE) 5,252 - -76.1°
Exits shadow 00:15:10 - 133° (SE) 5,329 11.8 -76.0°
Sets 00:19:18 0° 123° (ESE) 5,973 12.2 -75.0°
